Weather observations for the past three days for
Fort Myers, Southwest Florida International Airport
| Date | Time (edt) | Wind (kph) | Vis. (km) | Weather | Sky Cond. | Temperature (ºC) | Relative Humidity | Wind Chill (°C) | Heat Index (°C) | Pressure | Precipitation (cm) | ||||||
|---|---|---|---|---|---|---|---|---|---|---|---|---|---|---|---|---|---|
| Air | Dwpt | 6 hour | altimeter (cm) | sea level (mb) | 1 hr | 3 hr | 6 hr | ||||||||||
| Max. | Min. | ||||||||||||||||
| 31 | 06:53 | Calm | 16.09 | Fair | CLR | 24.4 | 23.3 | 94% | 24 | 76.2 | 1015.4 | ||||||
| 31 | 05:53 | NE 7 | 16.09 | Fair | CLR | 24.4 | 23.3 | 94% | 24 | 76.17 | 1015.2 | ||||||
| 31 | 04:53 | NE 6 | 16.09 | Fair | CLR | 23.9 | 23.3 | 96% | 23 | 76.17 | 1015.2 | ||||||
| 31 | 03:53 | NE 7 | 16.09 | Fair | CLR | 24.4 | 23.3 | 94% | 24 | 76.17 | 1015.2 | ||||||
| 31 | 02:53 | N 6 | 16.09 | Fair | CLR | 24.4 | 23.9 | 97% | 24 | 76.2 | 1015.6 | ||||||
| 31 | 01:53 | NE 7 | 16.09 | Fair | CLR | 24.4 | 23.9 | 26.1 | 24.4 | 97% | 24 | 76.23 | 1016.0 | ||||
| 31 | 00:53 | E 6 | 16.09 | Fair | CLR | 25 | 24.4 | 96% | 25 | 76.28 | 1016.5 | ||||||
| 30 | 23:53 | NE 7 | 16.09 | Fair | CLR | 25 | 24.4 | 96% | 25 | 76.3 | 1016.9 | ||||||
| 30 | 22:53 | E 7 | 16.09 | Fair | CLR | 25.6 | 24.4 | 93% | 27 | 76.25 | 1016.4 | ||||||
| 30 | 21:53 | E 9 | 16.09 | Fair | CLR | 25.6 | 24.4 | 93% | 27 | 76.28 | 1016.6 | ||||||
| 30 | 20:53 | Calm | 16.09 | Fair | CLR | 25.6 | 24.4 | 93% | 27 | 76.3 | 1016.8 | ||||||
| 30 | 19:53 | Calm | 16.09 | Fair | CLR | 26.1 | 24.4 | 30.6 | 23.3 | 90% | 28 | 76.25 | 1016.1 | 0.56 | |||
| 30 | 18:53 | Calm | 16.09 | Fair | CLR | 26.1 | 23.9 | 88% | 28 | 76.2 | 1015.5 | ||||||
| 30 | 17:53 | E 6 | 16.09 | Light Rain | BKN050 BKN060 OVC070 | 25 | 23.9 | 94% | 26 | 76.2 | 1015.5 | 0.05 | |||||
| 30 | 16:53 | Calm | 16.09 | Light Rain | FEW065 OVC085 | 24.4 | 22.2 | 88% | 25 | 76.23 | 1015.8 | 0.05 | 0.51 | ||||
| 30 | 15:53 | E 11 | 16.09 | Light Rain | SCT075 BKN095 BKN110 | 23.9 | 22.8 | 94% | 23 | 76.23 | 1015.9 | 0.28 | |||||
| 30 | 14:53 | E 20 G 33 | 3.22 | Thunderstorm Heavy Rain | FEW015 BKN030 OVC060 | 25 | 22.2 | 85% | 26 | 76.38 | 1017.9 | 0.18 | |||||
| 30 | 13:53 | NW 9 | 16.09 | Fair | CLR | 30 | 23.9 | 31.1 | 23.9 | 70% | 35 | 76.28 | 1016.5 | 1.35 | |||
| 30 | 12:53 | N 9 | 6.44 | Light Rain Fog/Mist | SCT026 BKN075 OVC090 | 25 | 23.3 | 90% | 26 | 76.33 | 1017.4 | 1.35 | |||||
| 30 | 11:53 | Vrbl 11 | 16.09 | A Few Clouds | FEW023 FEW070 | 31.1 | 25.6 | 73% | 39 | 76.33 | 1017.4 | ||||||
| 30 | 10:53 | E 7 | 16.09 | Fair | CLR | 29.4 | 25.6 | 80% | 36 | 76.35 | 1017.7 | ||||||
| 30 | 09:53 | NE 9 | 16.09 | Fair | CLR | 27.2 | 25 | 88% | 31 | 76.38 | 1017.8 | ||||||
| 30 | 08:53 | NE 11 | 16.09 | Fair | CLR | 24.4 | 23.3 | 94% | 24 | 76.3 | 1017.1 | ||||||
| 30 | 07:53 | NE 6 | 16.09 | Fair | CLR | 23.9 | 22.8 | 23.9 | 23.3 | 94% | 23 | 76.3 | 1017.0 | ||||
| 30 | 06:53 | NE 11 | 16.09 | Fair | CLR | 23.3 | 22.8 | 97% | 76.25 | 1016.2 | |||||||
| 30 | 05:53 | NE 9 | 16.09 | Fair | CLR | 23.3 | 22.2 | 94% | 76.2 | 1015.5 | |||||||
| 30 | 04:53 | Calm | 16.09 | Fair | CLR | 23.3 | 22.2 | 94% | 76.17 | 1015.4 | |||||||
| 30 | 03:53 | NE 7 | 16.09 | Fair | CLR | 23.3 | 21.7 | 91% | 76.25 | 1016.2 | |||||||
| 30 | 02:53 | NE 7 | 16.09 | Fair | CLR | 23.3 | 21.7 | 91% | 76.28 | 1016.7 | |||||||
| 30 | 01:53 | NE 11 | 16.09 | Fair | CLR | 23.3 | 22.2 | 24.4 | 23.3 | 94% | 76.3 | 1017.1 | |||||
| 30 | 00:53 | N 7 | 16.09 | Fair | CLR | 23.9 | 22.2 | 90% | 23 | 76.33 | 1017.4 | ||||||
| 29 | 23:53 | NE 11 | 16.09 | Fair | CLR | 23.9 | 22.8 | 94% | 23 | 76.35 | 1017.6 | ||||||
| 29 | 22:53 | E 7 | 16.09 | Fair | CLR | 23.9 | 23.3 | 96% | 23 | 76.3 | 1017.0 | ||||||
| 29 | 21:53 | E 9 | 16.09 | Fair | CLR | 23.9 | 23.3 | 96% | 23 | 76.3 | 1016.8 | ||||||
| 29 | 20:53 | E 7 | 16.09 | Fair | CLR | 24.4 | 23.3 | 94% | 24 | 76.33 | 1017.3 | ||||||
| 29 | 19:53 | NE 6 | 16.09 | Fair | CLR | 24.4 | 23.3 | 34.4 | 22.8 | 94% | 24 | 76.3 | 1017.0 | 2.92 | |||
| 29 | 18:53 | NE 9 | 16.09 | Fair | CLR | 23.9 | 22.8 | 94% | 23 | 76.3 | 1016.8 | ||||||
| 29 | 17:53 | NE 7 | 16.09 | Fair | CLR | 24.4 | 22.8 | 91% | 24 | 76.2 | 1015.7 | 0.03 | |||||
| 29 | 15:53 | NW 9 | 8.05 | Thunderstorm Heavy Rain Fog | FEW014 OVC026 | 22.8 | 21.7 | 94% | 76.35 | 1017.6 | 2.26 | ||||||
| 29 | 14:53 | Calm | 2.01 | Thunderstorm Heavy Rain | BKN033 OVC044 | 24.4 | 21.7 | 85% | 25 | 76.33 | 1017.2 | 0.53 | |||||
| 29 | 13:53 | Calm | 16.09 | A Few Clouds | FEW080 | 34.4 | 23.3 | 34.4 | 25.6 | 52% | 40 | 76.28 | 1016.5 | ||||
| 29 | 12:53 | N 6 | 16.09 | Mostly Cloudy | FEW038 SCT049 BKN085 | 33.9 | 23.9 | 56% | 40 | 76.3 | 1017.0 | ||||||
| 29 | 11:53 | E 7 | 16.09 | Fair | CLR | 32.8 | 24.4 | 61% | 39 | 76.35 | 1017.5 | ||||||
| 29 | 10:53 | E 11 | 16.09 | A Few Clouds | FEW022 | 31.1 | 25.6 | 73% | 39 | 76.4 | 1018.1 | ||||||
| 29 | 09:53 | E 7 | 16.09 | Fair | CLR | 29.4 | 25.6 | 80% | 36 | 76.38 | 1017.9 | ||||||
| 29 | 08:53 | E 13 | 16.09 | Fair | CLR | 27.8 | 25 | 85% | 32 | 76.33 | 1017.3 | ||||||
| 29 | 07:53 | Calm | 16.09 | Fair | CLR | 25 | 23.9 | 25 | 23.9 | 94% | 26 | 76.35 | 1017.7 | ||||
| 29 | 06:53 | NE 6 | 16.09 | Fair | CLR | 24.4 | 23.3 | 94% | 24 | 76.3 | 1016.8 | ||||||
| 29 | 05:53 | E 9 | 16.09 | Fair | CLR | 24.4 | 22.8 | 91% | 24 | 76.25 | 1016.3 | ||||||
| 29 | 04:53 | NE 7 | 16.09 | Fair | CLR | 24.4 | 22.8 | 91% | 24 | 76.25 | 1016.3 | ||||||
| 29 | 03:53 | E 9 | 16.09 | Fair | CLR | 25 | 22.8 | 88% | 26 | 76.25 | 1016.2 | ||||||
| 29 | 02:53 | NE 9 | 16.09 | Fair | CLR | 25 | 23.3 | 90% | 26 | 76.25 | 1016.4 | ||||||
| 29 | 01:53 | NE 9 | 16.09 | Fair | CLR | 25 | 23.3 | 25.6 | 25 | 90% | 26 | 76.28 | 1016.7 | 0.71 | |||
| 29 | 00:53 | NE 7 | 16.09 | Fair | CLR | 25 | 23.3 | 90% | 26 | 76.33 | 1017.2 | ||||||
| 28 | 23:53 | NE 9 | 16.09 | Fair | CLR | 25 | 23.9 | 94% | 26 | 76.33 | 1017.2 | ||||||
| 28 | 22:53 | Calm | 16.09 | Fair | CLR | 25 | 23.3 | 90% | 26 | 76.3 | 1016.8 | 0.71 | |||||
| 28 | 21:53 | Calm | 16.09 | Light Rain | FEW090 SCT120 | 25 | 23.9 | 94% | 26 | 76.3 | 1017.0 | ||||||
| 28 | 19:53 | N 9 | 11.27 | Thunderstorm Rain | SCT042 BKN050 OVC090 | 25.6 | 24.4 | 35 | 23.9 | 93% | 27 | 76.28 | 1016.6 | 3.63 | 3.68 | ||
| 28 | 18:53 | SE 20 | 14.48 | Thunderstorm Light Rain | FEW035 OVC044 | 27.8 | 22.8 | 74% | 31 | 76.23 | 1015.9 | 0.05 | |||||
| 28 | 17:53 | N 6 | 16.09 | Thunderstorm in Vicinity | FEW034 | 32.2 | 23.3 | 59% | 37 | 76.15 | 1014.8 | ||||||
| 28 | 16:53 | W 9 | 16.09 | Thunderstorm | SCT065 BKN080 | 34.4 | 22.8 | 51% | 40 | 76.15 | 1015.0 | ||||||
| 28 | 15:53 | W 17 | 16.09 | Fair | CLR | 33.9 | 23.3 | 54% | 40 | 76.17 | 1015.1 | ||||||
| 28 | 14:53 | Vrbl 11 | 16.09 | Partly Cloudy | FEW050 SCT065 | 35 | 23.3 | 51% | 41 | 76.2 | 1015.7 | ||||||
| 28 | 13:53 | W 9 | 16.09 | Mostly Cloudy | BKN050 BKN100 | 33.9 | 22.8 | 34.4 | 25 | 52% | 39 | 76.3 | 1016.9 | ||||
| 28 | 12:53 | S 13 | 16.09 | A Few Clouds | FEW050 FEW090 | 33.3 | 22.8 | 54% | 38 | 76.38 | 1017.9 | ||||||
| 28 | 11:53 | S 7 | 16.09 | A Few Clouds | FEW039 | 32.8 | 23.3 | 57% | 38 | 76.4 | 1018.4 | ||||||
| 28 | 10:53 | SE 15 | 16.09 | Fair | CLR | 31.1 | 23.9 | 66% | 37 | 76.38 | 1018.0 | ||||||
| 28 | 09:53 | S 11 | 16.09 | Fair | CLR | 30 | 23.9 | 70% | 35 | 76.38 | 1017.9 | ||||||
| 28 | 08:53 | SE 9 | 16.09 | Fair | CLR | 27.8 | 23.3 | 77% | 31 | 76.33 | 1017.4 | ||||||
| 28 | 07:53 | E 6 | 16.09 | Fair | CLR | 25 | 22.8 | 25 | 23.9 | 88% | 26 | 76.3 | 1017.0 | ||||
| Date | Time (edt) | Wind (kph) | Vis. (km) | Weather | Sky Cond. | Air | Dwpt | Max. | Min. | Relative Humidity | Wind Chill (°C) | Heat Index (°C) | altimeter (cm) | sea level (mb) | 1 hr | 3 hr | 6 hr |
| 6 hour | |||||||||||||||||
| Temperature (ºC) | Pressure | Precipitation (cm) | |||||||||||||||